Location: Erlenbrunn
(49.1717°N, 7.6142°E)
Time: 12:05:04
(UTC+00:00)

Cosmos 1943 Rocket - Pass Details

Date: 25 November 2020
Orbit: 811 x 845 km, 71.0° (Epoch: 25 January)

Event Time Altitude Azimuth Distance (km) Brightness Sun altitude
Rises 18:03:29 0° 330° (NNW) 3,354 5.6 -23.2°
Reaches altitude 10° 18:05:54 10° 330° (NNW) 2,422 4.9 -23.6°
Maximum altitude 18:11:27 83° 244° (WSW) 835 2.1 -24.5°
Enters shadow 18:14:20 30° 158° (SSE) 1,449 3.2 -25.0°
